{"data":{"norad_id":66298,"intl_designator":"2025-248F","name":"SEMI-1P","alt_names":[],"object_type":"PAYLOAD","status":"ACTIVE","operator":null,"country":"TURK","launch_date":"2025-11-02","launch_site_code":"AFETR","launch_vehicle":null,"mission":null,"orbit_class":"UNKNOWN","rcs_meters":null,"size_class":null,"mass_kg":null,"dimensions":null,"purposes":[],"wikipedia_slug":null,"has_3d_model":false,"image_url":null,"decayed_at":null,"tle_current":{"epoch":"2026-05-23T00:36:26.879040Z","epoch_age_seconds":246486,"freshness":"STALE","line1":"1 66298U 25248F   26143.02531110  .00002097  00000+0  10623-3 0  9993","line2":"2 66298  45.3794 254.8111 0012944 250.4990 109.4499 15.20720044 30707","mean_motion":15.20720044,"eccentricity":0.0012944,"inclination_deg":45.3794,"raan_deg":254.8111,"arg_perigee_deg":250.499,"mean_anomaly_deg":109.4499,"bstar":0.00010623,"rev_number":3070,"period_min":94.691985265896,"perigee_km":494.75964340155,"apogee_km":512.57525876452,"semimajor_km":6881.804451083,"source":"CELESTRAK","updated_at":"2026-05-25T13:38:06.127715Z"}}}